QPF
0.00 0.00 0.00 0.00 0.00 0.00 0.00 0.00 0.00 0.00 0.00 0.00 0.00 0.00 0.00 0.00 0.00 0.00 0.00 0.00 0.00 0.00 0.00 0.01 0.01 0.00 0.01 0.01 0.01 0.01 0.00 0.00 0.00 0.00 0.00 0.00 0.00 0.01 0.01 0.01 0.01 0.01 0.01 0.01 0.01 0.01 0.01 0.01 0.00
0.00 0.00 0.00 0.00 0.00 0.00 0.00 0.00 0.00 0.00 0.00 0.00 0.00 0.00 0.00 0.00 0.00 0.00 0.00 0.00 0.00 0.00 0.00 0.01 0.01 0.01 0.01 0.01 0.00 0.00 0.00 0.00 0.00 0.00 0.00 0.00 0.00 0.01 0.01 0.01 0.01 0.01 0.01 0.01 0.01 0.01 0.01 0.01 0.01
0.00 0.01 0.01 0.00 0.00 0.00 0.00 0.00 0.00 0.00 0.00 0.00 0.00 0.00 0.00 0.00 0.00 0.00 0.00 0.00 0.00 0.00 0.00 0.00 0.01 0.01 0.00 0.00 0.00 0.00 0.00 0.00 0.00 0.00 0.00 0.01 0.01 0.01 0.01 0.01 0.00 0.00 0.01 0.00 0.00 0.01 0.01 0.00 0.00
0.01 0.01 0.01 0.00 0.00 0.00 0.00 0.00 0.00 0.00 0.00 0.00 0.00 0.00 0.00 0.00 0.00 0.00 0.00 0.00 0.00 0.00 0.00 0.00 0.00 0.01 0.01 0.01 0.01 0.00 0.00 0.01 0.01 0.01 0.01 0.01 0.01 0.01 0.01 0.00 0.00 0.01 0.01 0.00 0.00 0.01 0.01 0.00 0.00
0.02 0.02 0.01 0.00 0.00 0.00 0.00 0.00 0.00 0.00 0.00 0.00 0.00 0.00 0.00 0.00 0.00 0.00 0.00 0.00 0.00 0.00 0.00 0.00 0.00 0.01 0.01 0.01 0.02 0.01 0.00 0.00 0.01 0.01 0.02 0.02 0.01 0.01 0.01 0.01 0.01 0.01 0.01 0.01 0.01 0.00 0.00 0.00 0.00
0.02 0.02 0.01 0.00 0.00 0.00 0.00 0.00 0.00 0.00 0.00 0.00 0.00 0.00 0.00 0.00 0.00 0.00 0.00 0.00 0.00 0.00 0.00 0.00 0.00 0.01 0.01 0.01 0.02 0.02 0.01 0.01 0.01 0.01 0.01 0.02 0.01 0.01 0.01 0.01 0.01 0.01 0.00 0.01 0.00 0.00 0.00 0.00 0.00
0.02 0.01 0.00 0.00 0.00 0.00 0.00 0.00 0.00 0.00 0.00 0.00 0.00 0.00 0.00 0.00 0.01 0.00 0.01 0.01 0.01 0.00 0.01 0.01 0.00 0.01 0.01 0.01 0.02 0.02 0.03 0.01 0.01 0.01 0.01 0.01 0.02 0.02 0.01 0.01 0.01 0.01 0.00 0.00 0.01 0.00 0.00 0.00 0.00
0.02 0.01 0.01 0.00 0.00 0.00 0.00 0.00 0.00 0.00 0.00 0.00 0.00 0.00 0.00 0.00 0.01 0.01 0.01 0.01 0.01 0.01 0.01 0.01 0.00 0.00 0.00 0.01 0.01 0.02 0.03 0.02 0.02 0.01 0.00 0.01 0.01 0.01 0.01 0.01 0.01 0.01 0.01 0.01 0.01 0.00 0.00 0.00 0.00
0.02 0.02 0.01 0.00 0.00 0.00 0.00 0.00 0.00 0.00 0.00 0.00 0.00 0.00 0.00 0.00 0.01 0.01 0.02 0.02 0.01 0.01 0.01 0.01 0.00 0.01 0.01 0.01 0.01 0.02 0.02 0.02 0.02 0.02 0.00 0.00 0.00 0.00 0.01 0.01 0.01 0.01 0.01 0.01 0.01 0.00 0.00 0.00 0.00
0.02 0.01 0.00 0.00 0.00 0.00 0.00 0.00 0.00 0.00 0.00 0.00 0.00 0.00 0.00 0.01 0.01 0.01 0.01 0.01 0.01 0.01 0.02 0.01 0.01 0.01 0.01 0.01 0.01 0.01 0.01 0.02 0.03 0.03 0.02 0.01 0.00 0.00 0.00 0.00 0.00 0.00 0.00 0.00 0.00 0.00 0.00 0.00 0.00
0.02 0.01 0.00 0.01 0.01 0.00 0.00 0.00 0.00 0.00 0.00 0.00 0.00 0.00 0.00 0.01 0.01 0.02 0.02 0.01 0.01 0.02 0.02 0.02 0.02 0.01 0.01 0.01 0.00 0.00 0.01 0.01 0.03 0.03 0.03 0.01 0.00 0.00 0.00 0.00 0.00 0.00 0.00 0.00 0.00 0.00 0.00 0.00 0.00
0.02 0.01 0.01 0.01 0.01 0.01 0.00 0.00 0.00 0.00 0.00 0.00 0.00 0.00 0.00 0.01 0.01 0.01 0.01 0.02 0.02 0.03 0.03 0.03 0.03 0.03 0.02 0.02 0.01 0.01 0.01 0.02 0.03 0.03 0.04 0.03 0.01 0.00 0.00 0.01 0.01 0.00 0.00 0.00 0.00 0.00 0.00 0.00 0.00
0.02 0.01 0.01 0.00 0.01 0.01 0.01 0.00 0.00 0.00 0.00 0.00 0.01 0.01 0.01 0.02 0.02 0.02 0.02 0.02 0.02 0.03 0.03 0.03 0.03 0.04 0.04 0.03 0.03 0.01 0.01 0.01 0.03 0.04 0.05 0.05 0.03 0.02 0.00 0.00 0.01 0.01 0.01 0.00 0.00 0.00 0.00 0.01 0.01
0.02 0.02 0.01 0.00 0.00 0.01 0.02 0.02 0.00 0.00 0.00 0.00 0.01 0.01 0.02 0.02 0.03 0.03 0.03 0.04 0.04 0.04 0.04 0.03 0.03 0.04 0.04 0.03 0.03 0.03 0.02 0.01 0.03 0.04 0.06 0.07 0.06 0.04 0.02 0.01 0.01 0.02 0.01 0.01 0.01 0.01 0.01 0.01 0.01
0.01 0.02 0.03 0.02 0.01 0.01 0.02 0.03 0.03 0.01 0.00 0.00 0.01 0.01 0.02 0.02 0.02 0.03 0.03 0.04 0.05 0.05 0.04 0.04 0.04 0.05 0.05 0.04 0.03 0.03 0.04 0.03 0.04 0.04 0.05 0.07 0.08 0.07 0.03 0.01 0.01 0.01 0.01 0.01 0.01 0.01 0.01 0.01 0.01
0.01 0.02 0.03 0.03 0.01 0.01 0.01 0.02 0.02 0.01 0.01 0.00 0.01 0.01 0.01 0.01 0.02 0.03 0.03 0.04 0.05 0.06 0.05 0.05 0.05 0.05 0.04 0.05 0.05 0.05 0.04 0.03 0.04 0.05 0.06 0.07 0.08 0.10 0.05 0.01 0.01 0.01 0.01 0.01 0.01 0.01 0.01 0.02 0.02
0.02 0.02 0.01 0.01 0.01 0.01 0.01 0.01 0.01 0.01 0.01 0.01 0.00 0.01 0.01 0.01 0.02 0.02 0.03 0.04 0.05 0.06 0.06 0.06 0.05 0.05 0.05 0.05 0.06 0.07 0.06 0.05 0.04 0.04 0.05 0.07 0.10 0.12 0.11 0.03 0.01 0.01 0.01 0.01 0.01 0.01 0.01 0.01 0.01
0.02 0.01 0.01 0.00 0.00 0.00 0.01 0.00 0.00 0.00 0.01 0.01 0.00 0.01 0.01 0.01 0.01 0.01 0.02 0.03 0.05 0.06 0.07 0.07 0.06 0.07 0.07 0.06 0.05 0.07 0.08 0.06 0.05 0.04 0.05 0.06 0.08 0.13 0.18 0.11 0.04 0.02 0.02 0.02 0.01 0.01 0.01 0.01 0.01
0.02 0.01 0.01 0.00 0.00 0.00 0.00 0.00 0.00 0.00 0.00 0.01 0.01 0.00 0.01 0.01 0.01 0.01 0.02 0.02 0.04 0.05 0.05 0.06 0.07 0.07 0.06 0.05 0.04 0.05 0.05 0.04 0.03 0.03 0.04 0.05 0.06 0.08 0.15 0.16 0.07 0.04 0.03 0.03 0.02 0.01 0.01 0.01 0.01
0.02 0.02 0.01 0.00 0.00 0.00 0.00 0.00 0.00 0.00 0.00 0.00 0.01 0.01 0.01 0.01 0.01 0.01 0.02 0.02 0.03 0.04 0.04 0.05 0.06 0.06 0.05 0.04 0.04 0.05 0.05 0.05 0.04 0.04 0.04 0.05 0.06 0.07 0.12 0.16 0.11 0.05 0.03 0.02 0.02 0.01 0.01 0.00 0.00
0.03 0.02 0.01 0.01 0.01 0.01 0.00 0.00 0.00 0.00 0.00 0.00 0.01 0.01 0.01 0.01 0.01 0.01 0.01 0.02 0.02 0.03 0.03 0.04 0.05 0.05 0.05 0.06 0.06 0.06 0.04 0.04 0.04 0.03 0.04 0.03 0.04 0.05 0.07 0.13 0.14 0.09 0.03 0.01 0.01 0.01 0.01 0.01 0.00
0.03 0.02 0.01 0.01 0.02 0.02 0.01 0.01 0.00 0.00 0.00 0.00 0.00 0.01 0.01 0.01 0.01 0.01 0.01 0.01 0.02 0.02 0.03 0.03 0.05 0.05 0.05 0.06 0.06 0.03 0.02 0.02 0.02 0.02 0.03 0.03 0.03 0.04 0.05 0.09 0.14 0.14 0.07 0.02 0.01 0.01 0.01 0.01 0.01
0.03 0.02 0.02 0.02 0.02 0.03 0.02 0.01 0.00 0.00 0.00 0.00 0.00 0.01 0.01 0.01 0.01 0.01 0.01 0.02 0.02 0.03 0.03 0.03 0.04 0.05 0.05 0.05 0.05 0.04 0.02 0.02 0.01 0.01 0.02 0.02 0.02 0.03 0.04 0.05 0.10 0.12 0.10 0.03 0.01 0.00 0.01 0.01 0.01
0.02 0.02 0.03 0.03 0.05 0.06 0.02 0.01 0.01 0.00 0.00 0.00 0.00 0.00 0.01 0.01 0.01 0.01 0.01 0.02 0.02 0.03 0.03 0.02 0.03 0.04 0.07 0.07 0.05 0.04 0.03 0.02 0.01 0.01 0.01 0.01 0.01 0.02 0.03 0.03 0.05 0.09 0.09 0.06 0.02 0.01 0.01 0.01 0.01
0.03 0.04 0.09 0.10 0.10 0.07 0.02 0.01 0.01 0.00 0.00 0.00 0.00 0.00 0.00 0.00 0.01 0.01 0.01 0.01 0.01 0.01 0.02 0.02 0.03 0.04 0.06 0.07 0.06 0.05 0.05 0.04 0.03 0.02 0.01 0.01 0.01 0.01 0.02 0.03 0.03 0.06 0.08 0.06 0.03 0.02 0.01 0.01 0.01
0.05 0.04 0.05 0.06 0.05 0.03 0.02 0.02 0.01 0.00 0.00 0.00 0.00 0.00 0.00 0.00 0.00 0.00 0.00 0.01 0.01 0.01 0.01 0.02 0.03 0.03 0.04 0.06 0.06 0.05 0.05 0.06 0.06 0.04 0.03 0.02 0.01 0.01 0.02 0.04 0.04 0.04 0.06 0.07 0.05 0.03 0.01 0.01 0.00
0.04 0.04 0.03 0.03 0.03 0.03 0.03 0.02 0.01 0.00 0.00 0.00 0.00 0.00 0.00 0.00 0.00 0.00 0.00 0.00 0.01 0.02 0.02 0.02 0.02 0.02 0.02 0.03 0.04 0.05 0.04 0.05 0.04 0.03 0.03 0.03 0.02 0.02 0.02 0.04 0.05 0.04 0.05 0.06 0.07 0.03 0.02 0.01 0.01
0.03 0.04 0.04 0.04 0.04 0.03 0.03 0.02 0.01 0.01 0.01 0.01 0.00 0.00 0.00 0.00 0.00 0.00 0.00 0.00 0.00 0.01 0.01 0.01 0.01 0.02 0.03 0.03 0.03 0.03 0.03 0.03 0.03 0.03 0.03 0.03 0.03 0.02 0.02 0.02 0.04 0.06 0.06 0.05 0.06 0.05 0.03 0.02 0.01
0.02 0.04 0.06 0.05 0.03 0.04 0.03 0.02 0.02 0.01 0.01 0.01 0.01 0.00 0.00 0.00 0.00 0.00 0.00 0.00 0.00 0.01 0.01 0.01 0.01 0.01 0.02 0.02 0.03 0.03 0.03 0.03 0.03 0.03 0.03 0.02 0.02 0.02 0.02 0.03 0.03 0.04 0.06 0.07 0.06 0.05 0.06 0.04 0.02
0.02 0.02 0.05 0.06 0.05 0.04 0.03 0.02 0.02 0.02 0.02 0.01 0.01 0.00 0.00 0.00 0.00 0.00 0.00 0.00 0.00 0.00 0.00 0.01 0.01 0.01 0.01 0.01 0.02 0.03 0.04 0.04 0.03 0.03 0.02 0.02 0.01 0.01 0.02 0.02 0.03 0.03 0.04 0.07 0.08 0.07 0.05 0.04 0.03
MSLP
1013.37 1014.14 1015.03 1015.87 1016.53 1016.88 1016.85 1016.43 1015.71 1014.81 1013.89 1013.09 1012.51 1012.20 1012.13 1012.23 1012.40 1012.54 1012.60 1012.57 1012.47 1012.39 1012.38 1012.53 1012.85 1013.33 1013.91 1014.50 1015.04 1015.47 1015.76 1015.93 1016.03 1016.11 1016.23 1016.42 1016.68 1016.99 1017.31 1017.61 1017.85 1018.05 1018.19 1018.31 1018.42 1018.55 1018.70 1018.85 1018.99
1013.70 1014.53 1015.40 1016.16 1016.67 1016.82 1016.57 1015.95 1015.06 1014.03 1013.05 1012.23 1011.68 1011.41 1011.40 1011.56 1011.79 1012.00 1012.13 1012.18 1012.18 1012.20 1012.31 1012.55 1012.96 1013.49 1014.10 1014.71 1015.25 1015.67 1015.97 1016.16 1016.29 1016.41 1016.56 1016.77 1017.03 1017.34 1017.64 1017.92 1018.15 1018.32 1018.46 1018.59 1018.71 1018.85 1019.01 1019.18 1019.32
1014.05 1014.87 1015.66 1016.27 1016.59 1016.53 1016.08 1015.29 1014.29 1013.22 1012.24 1011.49 1011.01 1010.83 1010.90 1011.13 1011.41 1011.67 1011.86 1011.98 1012.06 1012.17 1012.36 1012.68 1013.14 1013.70 1014.32 1014.91 1015.43 1015.84 1016.14 1016.33 1016.48 1016.63 1016.81 1017.04 1017.32 1017.61 1017.91 1018.16 1018.38 1018.54 1018.68 1018.81 1018.95 1019.11 1019.29 1019.46 1019.62
1014.39 1015.14 1015.80 1016.23 1016.33 1016.06 1015.44 1014.54 1013.49 1012.45 1011.56 1010.92 1010.58 1010.52 1010.68 1010.97 1011.30 1011.60 1011.82 1011.99 1012.13 1012.31 1012.57 1012.94 1013.42 1013.99 1014.58 1015.13 1015.60 1015.97 1016.24 1016.44 1016.60 1016.77 1016.98 1017.23 1017.52 1017.82 1018.11 1018.36 1018.56 1018.72 1018.87 1019.01 1019.17 1019.34 1019.53 1019.72 1019.90
1014.69 1015.34 1015.83 1016.05 1015.94 1015.49 1014.73 1013.78 1012.75 1011.81 1011.06 1010.58 1010.40 1010.47 1010.72 1011.07 1011.44 1011.75 1012.00 1012.19 1012.38 1012.60 1012.90 1013.31 1013.80 1014.34 1014.88 1015.37 1015.77 1016.09 1016.31 1016.49 1016.66 1016.86 1017.09 1017.37 1017.68 1017.99 1018.27 1018.52 1018.72 1018.89 1019.04 1019.19 1019.37 1019.56 1019.76 1019.97 1020.15
1014.95 1015.46 1015.76 1015.78 1015.48 1014.87 1014.04 1013.08 1012.13 1011.33 1010.76 1010.47 1010.44 1010.64 1010.97 1011.36 1011.74 1012.05 1012.30 1012.51 1012.73 1012.99 1013.33 1013.75 1014.23 1014.74 1015.22 1015.63 1015.96 1016.21 1016.39 1016.55 1016.72 1016.93 1017.19 1017.50 1017.82 1018.14 1018.43 1018.68 1018.88 1019.05 1019.21 1019.38 1019.57 1019.78 1019.99 1020.20 1020.39
1015.13 1015.50 1015.63 1015.47 1015.01 1014.30 1013.43 1012.51 1011.68 1011.04 1010.65 1010.53 1010.65 1010.94 1011.33 1011.73 1012.09 1012.39 1012.63 1012.86 1013.10 1013.39 1013.76 1014.20 1014.68 1015.15 1015.57 1015.91 1016.17 1016.36 1016.50 1016.64 1016.81 1017.04 1017.32 1017.65 1017.99 1018.32 1018.62 1018.86 1019.06 1019.24 1019.41 1019.58 1019.78 1020.00 1020.22 1020.43 1020.62
1015.23 1015.47 1015.46 1015.15 1014.58 1013.81 1012.95 1012.11 1011.40 1010.92 1010.69 1010.71 1010.94 1011.29 1011.69 1012.07 1012.40 1012.67 1012.90 1013.13 1013.40 1013.73 1014.14 1014.60 1015.08 1015.52 1015.90 1016.19 1016.40 1016.54 1016.65 1016.78 1016.96 1017.20 1017.51 1017.85 1018.20 1018.54 1018.83 1019.07 1019.26 1019.44 1019.61 1019.79 1020.00 1020.22 1020.43 1020.64 1020.81
1015.26 1015.39 1015.26 1014.86 1014.22 1013.45 1012.63 1011.88 1011.30 1010.95 1010.85 1010.97 1011.25 1011.61 1011.99 1012.33 1012.61 1012.84 1013.05 1013.29 1013.58 1013.96 1014.40 1014.89 1015.38 1015.82 1016.18 1016.44 1016.62 1016.74 1016.84 1016.97 1017.16 1017.42 1017.74 1018.09 1018.45 1018.78 1019.06 1019.29 1019.48 1019.65 1019.81 1020.00 1020.20 1020.41 1020.63 1020.82 1020.98
1015.23 1015.27 1015.06 1014.61 1013.96 1013.21 1012.47 1011.82 1011.35 1011.12 1011.10 1011.26 1011.54 1011.87 1012.19 1012.47 1012.69 1012.87 1013.07 1013.31 1013.64 1014.05 1014.53 1015.06 1015.56 1016.01 1016.37 1016.63 1016.80 1016.92 1017.03 1017.18 1017.38 1017.66 1017.98 1018.34 1018.69 1019.00 1019.27 1019.49 1019.66 1019.83 1019.99 1020.17 1020.37 1020.58 1020.78 1020.96 1021.11
1015.15 1015.14 1014.88 1014.42 1013.80 1013.12 1012.46 1011.92 1011.55 1011.39 1011.41 1011.58 1011.82 1012.09 1012.32 1012.51 1012.66 1012.81 1012.98 1013.23 1013.57 1014.02 1014.53 1015.08 1015.61 1016.07 1016.44 1016.71 1016.90 1017.04 1017.18 1017.34 1017.57 1017.85 1018.18 1018.53 1018.86 1019.17 1019.42 1019.62 1019.79 1019.95 1020.12 1020.30 1020.50 1020.70 1020.89 1021.06 1021.18
1015.06 1015.00 1014.74 1014.31 1013.75 1013.16 1012.60 1012.16 1011.87 1011.75 1011.78 1011.91 1012.09 1012.27 1012.41 1012.52 1012.60 1012.70 1012.85 1013.09 1013.44 1013.90 1014.43 1014.99 1015.53 1016.00 1016.39 1016.68 1016.89 1017.06 1017.23 1017.42 1017.67 1017.96 1018.28 1018.62 1018.93 1019.22 1019.46 1019.66 1019.83 1019.99 1020.17 1020.35 1020.55 1020.76 1020.94 1021.09 1021.20
1014.98 1014.91 1014.66 1014.28 1013.82 1013.33 1012.88 1012.53 1012.30 1012.21 1012.21 1012.28 1012.38 1012.46 1012.51 1012.53 1012.55 1012.60 1012.73 1012.96 1013.30 1013.74 1014.26 1014.81 1015.34 1015.82 1016.21 1016.52 1016.77 1016.98 1017.18 1017.39 1017.65 1017.94 1018.25 1018.56 1018.86 1019.13 1019.37 1019.57 1019.75 1019.93 1020.13 1020.33 1020.54 1020.75 1020.93 1021.07 1021.16
1014.95 1014.87 1014.67 1014.36 1014.00 1013.63 1013.29 1013.02 1012.83 1012.74 1012.70 1012.70 1012.70 1012.69 1012.65 1012.60 1012.56 1012.57 1012.66 1012.86 1013.16 1013.57 1014.05 1014.56 1015.06 1015.53 1015.93 1016.27 1016.54 1016.79 1017.02 1017.25 1017.51 1017.79 1018.08 1018.37 1018.65 1018.90 1019.13 1019.35 1019.56 1019.77 1019.98 1020.22 1020.45 1020.66 1020.85 1020.99 1021.07
1014.99 1014.92 1014.77 1014.56 1014.30 1014.04 1013.80 1013.60 1013.44 1013.32 1013.23 1013.14 1013.05 1012.95 1012.83 1012.72 1012.63 1012.60 1012.65 1012.80 1013.05 1013.39 1013.81 1014.27 1014.73 1015.18 1015.58 1015.94 1016.25 1016.53 1016.78 1017.04 1017.29 1017.55 1017.81 1018.07 1018.32 1018.56 1018.79 1019.02 1019.26 1019.51 1019.76 1020.02 1020.28 1020.51 1020.71 1020.86 1020.95
1015.10 1015.06 1014.98 1014.86 1014.71 1014.55 1014.39 1014.23 1014.07 1013.91 1013.75 1013.58 1013.41 1013.22 1013.04 1012.88 1012.75 1012.68 1012.68 1012.77 1012.95 1013.22 1013.56 1013.94 1014.36 1014.78 1015.19 1015.57 1015.92 1016.23 1016.52 1016.79 1017.03 1017.27 1017.49 1017.71 1017.93 1018.15 1018.38 1018.63 1018.90 1019.18 1019.47 1019.77 1020.05 1020.31 1020.53 1020.69 1020.79
1015.28 1015.29 1015.28 1015.25 1015.20 1015.13 1015.03 1014.88 1014.70 1014.48 1014.24 1013.98 1013.72 1013.46 1013.23 1013.03 1012.87 1012.77 1012.73 1012.75 1012.86 1013.04 1013.29 1013.61 1013.97 1014.37 1014.78 1015.20 1015.59 1015.95 1016.27 1016.55 1016.78 1016.99 1017.17 1017.35 1017.53 1017.73 1017.95 1018.21 1018.50 1018.81 1019.14 1019.46 1019.78 1020.06 1020.30 1020.49 1020.62
1015.52 1015.58 1015.64 1015.70 1015.74 1015.73 1015.65 1015.50 1015.26 1014.97 1014.63 1014.28 1013.94 1013.63 1013.36 1013.14 1012.97 1012.85 1012.77 1012.74 1012.77 1012.86 1013.03 1013.27 1013.59 1013.97 1014.40 1014.84 1015.28 1015.69 1016.04 1016.33 1016.56 1016.74 1016.88 1017.01 1017.15 1017.32 1017.54 1017.80 1018.10 1018.43 1018.78 1019.13 1019.47 1019.78 1020.05 1020.27 1020.44
1015.78 1015.90 1016.03 1016.17 1016.27 1016.30 1016.22 1016.02 1015.72 1015.33 1014.89 1014.46 1014.06 1013.71 1013.43 1013.21 1013.04 1012.91 1012.81 1012.74 1012.70 1012.71 1012.80 1012.97 1013.24 1013.61 1014.04 1014.52 1015.00 1015.45 1015.84 1016.14 1016.36 1016.51 1016.62 1016.71 1016.81 1016.95 1017.15 1017.40 1017.71 1018.05 1018.42 1018.78 1019.14 1019.46 1019.76 1020.02 1020.25
1016.04 1016.21 1016.42 1016.62 1016.75 1016.78 1016.67 1016.41 1016.02 1015.53 1015.01 1014.50 1014.05 1013.69 1013.42 1013.23 1013.10 1013.00 1012.89 1012.79 1012.70 1012.64 1012.65 1012.75 1012.97 1013.31 1013.74 1014.23 1014.74 1015.22 1015.63 1015.95 1016.17 1016.30 1016.37 1016.43 1016.50 1016.62 1016.79 1017.04 1017.34 1017.69 1018.05 1018.42 1018.79 1019.13 1019.46 1019.75 1020.02
1016.29 1016.50 1016.75 1016.99 1017.14 1017.15 1016.99 1016.66 1016.17 1015.58 1014.98 1014.42 1013.95 1013.61 1013.39 1013.27 1013.20 1013.14 1013.06 1012.95 1012.82 1012.71 1012.64 1012.66 1012.82 1013.10 1013.50 1013.99 1014.50 1014.99 1015.41 1015.73 1015.94 1016.06 1016.11 1016.15 1016.20 1016.30 1016.46 1016.70 1017.00 1017.34 1017.70 1018.06 1018.42 1018.77 1019.11 1019.45 1019.76
1016.51 1016.75 1017.03 1017.28 1017.43 1017.40 1017.18 1016.75 1016.17 1015.51 1014.84 1014.26 1013.81 1013.52 1013.38 1013.35 1013.37 1013.39 1013.36 1013.26 1013.11 1012.94 1012.80 1012.74 1012.81 1013.02 1013.36 1013.79 1014.27 1014.74 1015.14 1015.45 1015.65 1015.76 1015.81 1015.84 1015.89 1015.98 1016.15 1016.38 1016.67 1017.00 1017.35 1017.70 1018.05 1018.40 1018.75 1019.09 1019.44
1016.74 1016.98 1017.27 1017.51 1017.63 1017.55 1017.25 1016.75 1016.09 1015.36 1014.67 1014.09 1013.68 1013.47 1013.43 1013.52 1013.65 1013.76 1013.80 1013.73 1013.57 1013.35 1013.14 1012.99 1012.95 1013.06 1013.30 1013.65 1014.06 1014.47 1014.84 1015.12 1015.31 1015.42 1015.47 1015.51 1015.57 1015.68 1015.85 1016.09 1016.38 1016.70 1017.03 1017.36 1017.69 1018.02 1018.36 1018.70 1019.06
1017.01 1017.24 1017.50 1017.71 1017.78 1017.64 1017.27 1016.70 1015.98 1015.21 1014.51 1013.96 1013.61 1013.49 1013.57 1013.78 1014.03 1014.24 1014.35 1014.32 1014.16 1013.91 1013.63 1013.38 1013.24 1013.22 1013.35 1013.59 1013.90 1014.23 1014.54 1014.78 1014.95 1015.06 1015.12 1015.18 1015.27 1015.40 1015.59 1015.83 1016.12 1016.42 1016.74 1017.04 1017.34 1017.65 1017.96 1018.30 1018.65
1017.37 1017.55 1017.78 1017.94 1017.95 1017.74 1017.31 1016.67 1015.91 1015.12 1014.43 1013.92 1013.64 1013.61 1013.80 1014.11 1014.47 1014.78 1014.95 1014.97 1014.81 1014.54 1014.20 1013.87 1013.62 1013.49 1013.49 1013.61 1013.81 1014.06 1014.29 1014.49 1014.64 1014.74 1014.83 1014.91 1015.03 1015.18 1015.39 1015.65 1015.93 1016.21 1016.50 1016.77 1017.04 1017.31 1017.59 1017.90 1018.22
1017.86 1017.99 1018.15 1018.25 1018.19 1017.91 1017.42 1016.73 1015.94 1015.15 1014.47 1014.00 1013.79 1013.83 1014.10 1014.50 1014.93 1015.30 1015.53 1015.58 1015.44 1015.15 1014.78 1014.39 1014.06 1013.83 1013.72 1013.73 1013.83 1013.98 1014.15 1014.30 1014.43 1014.54 1014.64 1014.76 1014.90 1015.08 1015.30 1015.55 1015.82 1016.08 1016.33 1016.57 1016.80 1017.03 1017.27 1017.54 1017.84
1018.52 1018.58 1018.66 1018.68 1018.53 1018.19 1017.63 1016.91 1016.10 1015.32 1014.66 1014.23 1014.06 1014.15 1014.45 1014.89 1015.36 1015.76 1016.02 1016.08 1015.96 1015.67 1015.29 1014.87 1014.49 1014.19 1014.01 1013.94 1013.95 1014.03 1014.14 1014.27 1014.38 1014.50 1014.61 1014.75 1014.91 1015.11 1015.33 1015.57 1015.81 1016.04 1016.26 1016.45 1016.64 1016.83 1017.04 1017.28 1017.54
1019.33 1019.31 1019.31 1019.23 1019.00 1018.58 1017.97 1017.22 1016.41 1015.64 1015.01 1014.60 1014.45 1014.55 1014.85 1015.28 1015.74 1016.13 1016.38 1016.45 1016.33 1016.06 1015.68 1015.27 1014.88 1014.56 1014.34 1014.22 1014.19 1014.22 1014.30 1014.40 1014.51 1014.63 1014.76 1014.91 1015.08 1015.28 1015.49 1015.71 1015.91 1016.10 1016.27 1016.42 1016.57 1016.73 1016.91 1017.13 1017.38
1020.28 1020.17 1020.06 1019.87 1019.54 1019.05 1018.39 1017.63 1016.83 1016.09 1015.50 1015.11 1014.96 1015.04 1015.31 1015.69 1016.09 1016.43 1016.64 1016.69 1016.57 1016.31 1015.97 1015.58 1015.22 1014.91 1014.69 1014.56 1014.51 1014.53 1014.59 1014.68 1014.79 1014.92 1015.06 1015.22 1015.39 1015.58 1015.77 1015.95 1016.11 1016.26 1016.38 1016.49 1016.61 1016.75 1016.92 1017.12 1017.36
1021.28 1021.08 1020.85 1020.54 1020.11 1019.54 1018.85 1018.09 1017.33 1016.64 1016.09 1015.74 1015.60 1015.65 1015.87 1016.17 1016.48 1016.73 1016.87 1016.88 1016.75 1016.50 1016.18 1015.84 1015.52 1015.25 1015.05 1014.94 1014.89 1014.90 1014.96 1015.05 1015.17 1015.30 1015.45 1015.61 1015.78 1015.95 1016.12 1016.26 1016.38 1016.48 1016.57 1016.65 1016.74 1016.87 1017.03 1017.24 1017.49
Thickness
5712 5716 5717 5712 5696 5683 5689 5707 5726 5737 5744 5754 5758 5757 5752 5749 5748 5745 5758 5765 5765 5762 5760 5757 5755 5754 5752 5751 5750 5749 5748 5747 5746 5746 5745 5744 5743 5742 5741 5740 5739 5738 5738 5737 5736 5735 5734 5733 5731
5706 5709 5705 5695 5680 5672 5687 5709 5725 5737 5748 5754 5755 5752 5747 5747 5755 5756 5758 5761 5762 5760 5757 5755 5753 5751 5750 5748 5747 5746 5745 5744 5743 5743 5742 5741 5740 5739 5738 5737 5736 5735 5734 5733 5732 5732 5730 5729 5728
5699 5701 5690 5680 5673 5677 5695 5717 5727 5739 5747 5750 5746 5746 5744 5745 5753 5755 5759 5760 5758 5756 5754 5751 5750 5748 5747 5745 5744 5743 5742 5741 5740 5739 5739 5738 5737 5736 5735 5734 5733 5732 5731 5730 5729 5728 5727 5725 5724
5689 5684 5678 5670 5674 5689 5705 5720 5728 5732 5740 5744 5741 5735 5741 5750 5754 5756 5757 5756 5754 5751 5749 5747 5746 5744 5743 5742 5741 5740 5739 5738 5737 5736 5735 5734 5733 5732 5731 5730 5729 5729 5727 5726 5725 5724 5723 5722 5720
5678 5670 5663 5662 5675 5692 5707 5719 5725 5725 5731 5736 5734 5727 5731 5745 5753 5753 5752 5751 5749 5747 5745 5743 5742 5741 5739 5738 5737 5736 5735 5734 5733 5732 5732 5730 5729 5728 5727 5727 5726 5725 5724 5723 5722 5720 5719 5718 5717
5662 5658 5651 5656 5673 5692 5704 5715 5719 5719 5723 5729 5727 5721 5725 5738 5743 5745 5746 5745 5744 5742 5740 5738 5737 5736 5735 5734 5733 5732 5731 5730 5730 5729 5728 5727 5726 5725 5724 5723 5722 5721 5719 5718 5718 5716 5715 5714 5712
5652 5650 5651 5660 5670 5683 5699 5710 5710 5712 5716 5722 5724 5714 5718 5728 5736 5739 5739 5738 5737 5736 5735 5733 5732 5731 5730 5729 5728 5728 5727 5726 5725 5725 5724 5723 5722 5721 5720 5719 5718 5716 5715 5714 5713 5712 5711 5710 5708
5649 5645 5650 5657 5666 5679 5696 5704 5709 5710 5712 5720 5722 5712 5712 5723 5730 5732 5731 5730 5729 5729 5729 5728 5727 5726 5725 5724 5724 5723 5722 5721 5721 5720 5719 5718 5717 5716 5715 5715 5713 5712 5711 5710 5709 5708 5707 5705 5704
5644 5634 5640 5654 5665 5677 5690 5694 5702 5709 5708 5710 5715 5717 5722 5723 5724 5722 5720 5719 5720 5721 5722 5722 5721 5721 5720 5719 5718 5718 5717 5716 5716 5715 5714 5713 5712 5712 5711 5710 5709 5708 5707 5705 5704 5703 5702 5701 5699
5629 5626 5642 5660 5669 5675 5681 5685 5691 5695 5694 5696 5702 5710 5715 5716 5716 5714 5713 5712 5713 5713 5715 5716 5716 5715 5715 5714 5713 5712 5712 5711 5711 5710 5709 5709 5708 5707 5706 5705 5704 5703 5702 5701 5700 5698 5697 5696 5695
5623 5627 5642 5655 5664 5669 5672 5676 5683 5683 5682 5689 5694 5699 5704 5705 5706 5707 5708 5709 5709 5710 5710 5710 5710 5710 5709 5709 5708 5707 5706 5706 5705 5705 5704 5704 5703 5702 5701 5700 5699 5698 5697 5696 5695 5693 5692 5691 5690
5615 5626 5637 5646 5655 5659 5661 5666 5669 5675 5681 5689 5694 5697 5697 5697 5698 5700 5701 5702 5703 5703 5704 5704 5705 5705 5704 5703 5703 5702 5702 5701 5700 5700 5699 5699 5698 5697 5696 5695 5695 5693 5692 5691 5690 5689 5687 5686 5685
5606 5616 5627 5637 5644 5648 5652 5653 5658 5664 5675 5681 5684 5686 5688 5689 5690 5693 5695 5696 5697 5697 5698 5699 5699 5699 5699 5698 5697 5697 5697 5696 5696 5695 5695 5694 5694 5693 5691 5691 5690 5689 5688 5686 5685 5684 5682 5681 5680
5600 5607 5615 5623 5632 5637 5639 5643 5648 5655 5664 5668 5672 5674 5677 5681 5683 5684 5686 5687 5689 5691 5692 5693 5693 5694 5693 5693 5692 5692 5692 5691 5691 5691 5690 5690 5689 5688 5687 5686 5685 5684 5683 5682 5680 5679 5677 5676 5675
5592 5593 5600 5610 5619 5626 5630 5628 5636 5646 5652 5655 5659 5662 5666 5670 5674 5677 5680 5682 5683 5684 5686 5686 5687 5687 5687 5687 5687 5686 5686 5686 5686 5686 5685 5684 5684 5683 5683 5681 5680 5679 5678 5677 5675 5673 5672 5671 5669
5578 5578 5580 5597 5608 5614 5613 5610 5628 5635 5640 5642 5647 5651 5655 5660 5664 5668 5672 5674 5675 5677 5678 5680 5681 5680 5681 5681 5681 5680 5680 5680 5680 5680 5680 5679 5679 5678 5677 5676 5675 5674 5673 5672 5670 5668 5666 5664 5663
5560 5560 5569 5583 5597 5601 5600 5602 5618 5625 5629 5633 5636 5640 5644 5649 5654 5658 5663 5666 5668 5669 5671 5672 5673 5673 5673 5673 5674 5674 5674 5674 5674 5674 5673 5673 5673 5672 5671 5671 5670 5669 5667 5666 5664 5662 5661 5658 5656
5549 5555 5563 5571 5584 5589 5588 5594 5607 5615 5619 5622 5625 5629 5634 5639 5644 5650 5653 5656 5658 5660 5662 5664 5665 5665 5665 5665 5665 5665 5665 5666 5666 5667 5667 5667 5666 5666 5665 5664 5664 5663 5661 5659 5658 5656 5654 5652 5650
5547 5551 5555 5565 5577 5578 5578 5584 5595 5604 5608 5611 5614 5618 5624 5629 5635 5640 5643 5646 5648 5650 5653 5654 5655 5656 5657 5657 5657 5656 5656 5657 5658 5659 5660 5661 5660 5660 5659 5657 5656 5656 5655 5653 5652 5650 5647 5644 5643
5537 5539 5544 5556 5566 5567 5567 5574 5585 5593 5598 5603 5607 5610 5615 5619 5624 5629 5632 5635 5638 5641 5643 5645 5647 5648 5649 5650 5651 5650 5649 5649 5650 5651 5652 5653 5653 5653 5652 5651 5649 5649 5648 5646 5645 5643 5640 5637 5635
5529 5531 5535 5543 5551 5556 5557 5560 5571 5581 5588 5594 5597 5602 5607 5612 5614 5618 5621 5623 5627 5630 5633 5637 5638 5639 5640 5642 5642 5640 5639 5639 5640 5641 5643 5645 5645 5645 5645 5644 5643 5641 5641 5639 5637 5636 5633 5630 5627
5519 5529 5533 5536 5532 5531 5542 5536 5556 5567 5574 5582 5585 5590 5596 5601 5605 5608 5611 5613 5617 5620 5624 5627 5629 5630 5631 5632 5633 5633 5632 5631 5633 5634 5634 5635 5636 5637 5637 5636 5635 5633 5632 5631 5630 5629 5627 5624 5620
5516 5525 5526 5527 5521 5517 5526 5526 5542 5554 5561 5570 5575 5580 5586 5591 5595 5598 5601 5604 5607 5610 5613 5616 5618 5620 5621 5622 5623 5624 5624 5624 5624 5625 5625 5626 5626 5627 5627 5627 5626 5625 5624 5623 5622 5621 5619 5618 5614
5510 5512 5512 5508 5506 5505 5517 5519 5530 5541 5555 5563 5568 5572 5576 5580 5584 5587 5590 5593 5595 5597 5600 5604 5607 5609 5610 5611 5613 5614 5614 5615 5615 5615 5616 5616 5617 5617 5618 5617 5616 5616 5615 5614 5614 5612 5611 5609 5607
5498 5493 5489 5488 5488 5497 5513 5514 5524 5540 5549 5557 5562 5564 5566 5569 5572 5576 5578 5581 5584 5586 5589 5592 5595 5597 5599 5600 5602 5603 5604 5605 5606 5607 5607 5607 5607 5607 5608 5608 5607 5607 5606 5606 5605 5603 5602 5600 5598
5485 5488 5482 5483 5486 5492 5504 5504 5519 5534 5540 5547 5552 5553 5555 5557 5561 5565 5568 5571 5573 5575 5578 5580 5583 5586 5588 5589 5591 5592 5593 5594 5595 5596 5597 5597 5598 5598 5599 5599 5598 5598 5597 5596 5596 5594 5592 5590 5588
5478 5478 5482 5477 5476 5480 5489 5499 5514 5527 5530 5535 5538 5541 5542 5545 5548 5552 5556 5559 5561 5563 5566 5569 5571 5574 5576 5578 5580 5580 5581 5582 5584 5585 5585 5586 5587 5588 5588 5589 5588 5588 5587 5586 5586 5584 5582 5580 5578
5476 5474 5469 5468 5469 5474 5484 5491 5503 5513 5518 5522 5525 5527 5530 5534 5536 5540 5543 5546 5548 5551 5553 5556 5559 5561 5563 5566 5568 5569 5569 5571 5572 5573 5573 5574 5575 5576 5577 5577 5577 5577 5576 5575 5575 5573 5572 5570 5567
5462 5464 5462 5461 5465 5467 5471 5484 5502 5504 5510 5512 5515 5517 5519 5522 5524 5527 5530 5533 5535 5538 5540 5543 5546 5548 5550 5553 5555 5556 5557 5558 5559 5561 5562 5562 5563 5565 5566 5566 5566 5566 5565 5564 5563 5562 5560 5558 5556
5456 5457 5455 5454 5452 5453 5458 5477 5495 5493 5497 5501 5502 5506 5508 5509 5511 5513 5515 5518 5521 5524 5527 5529 5532 5535 5537 5539 5541 5543 5544 5545 5547 5548 5549 5550 5551 5552 5554 5555 5554 5554 5553 5553 5551 5550 5549 5547 5545